Погода в Уральском

Россия / Свердловская область     56°40′31″N   61°04′55″E
темп.,
°C
ветер,
м/с
пор.,
м/с
влажн.,
%
обл.,
%
осадки,
мм/ч
давл.,
гПа
погр.,
м
21 июня, пн
пн2123:00+12с5124167 0.0 10171005
02:00+10ссз5134719 0.0 1019768
05:00+8ссз514594 0.0 1021623
08:00+12с58535 0.0 1022749
11:00+16с464492 0.0 10221414
14:00+19с353191 0.0 10211855
17:00+20ссз352513 0.0 10211965
20:00+17ссв1147100 0.0 102013
22 июня, вт
вт2223:00+15ююз1148100 0.0 102012
02:00+14зсз1150100 0.0 101912
05:00+12з257391 0.0 1019107
08:00+13зюз2590100 0.3 1018150
11:00+18з35778 0.4 1017533
14:00+24ссз466332 0.9 10151313
17:00+26ссв584681 1.3 10141797
20:00+21всв3763100 0.0 1015279
23 июня, ср
ср2323:00+15ссв11824 0.0 101611
02:00+15всв487475 0.0 1017416
05:00+12св2792100 0.1 1019419
08:00+13ссв2584100 0.0 1020366
11:00+19св34385 0.0 10201798
14:00+22св33305 0.0 10192167
17:00+22ссв33285 0.0 10182372
20:00+19ссв24470 0.0 1018115
24 июня, чт
чт2423:00+12вюв11620 0.0 101910
02:00+11зюз11720 0.0 101811
05:00+11з22654 0.0 101841
08:00+18зсз475133 0.0 1016407
11:00+24сз4647100 0.0 10151940
14:00+25сз364480 0.2 10142324
17:00+24зсз4650100 0.2 1014696
20:00+22ссз1158100 0.0 101315
25 июня, пт
пт2523:00+17сз118052 0.0 101416
02:00+16зсз11937 0.0 101312
05:00+16з259485 0.1 101297
08:00+20з498673 0.8 1012420
11:00+27зсз354818 1.2 10101422
14:00+30з453941 0.0 10082272
17:00+25зсз386037 0.1 1007279
20:00+21зюз118619 0.4 100727